Skip Page Navigation
NASA JPL Caltech
NASA Logo - Jet Propulsion Laboratory + View the NASA Portal
+ Near-Earth Object (NEO) Program
Search JPL
JPL Home Earth Solar System Stars & Galaxies Technology
JPL Solar System Dynamics
BODIES ORBITS EPHEMERIDES TOOLS PHYSICAL DATA DISCOVERY FAQ SITE MAP
JPL Small-Body Database Browser
Search: [ help ]  
315898 (2008 QD4)
Classification: Centaur          SPK-ID: 2315898
Ephemeris | Orbit Diagram | Orbital Elements | Physical Parameters | Discovery Circumstances ]

[ show orbit diagram ]
Orbital Elements at Epoch 2457000.5 (2014-Dec-09.0) TDB
Reference: JPL 11 (heliocentric ecliptic J2000)
 Element Value Uncertainty (1-sigma)   Units 
e .3529926748619842 1.2109e-06  
a 8.424113000647926 1.6825e-05 AU
q 5.450462819209599 1.18e-06 AU
i 42.01640978295732 1.5872e-05 deg
node 344.7018965851899 1.8157e-05 deg
peri 69.11809783224615 8.5609e-05 deg
M 63.12010417416309 0.00022469 deg
tp 2455434.650893584367
(2010-Aug-26.15089358)
0.0011051 JED
period 8930.68358623478
24.45
0.026755
7.325e-05
d
yr
n .04031046408976827 1.2077e-07 deg/d
Q 11.39776318208625 2.2764e-05 AU
  Orbit Determination Parameters
   # obs. used (total)      174  
   data-arc span      2376 days (6.51 yr)  
   first obs. used      2008-08-25  
   last obs. used      2015-02-26  
   planetary ephem.      DE431  
   SB-pert. ephem.      SB431-BIG16  
   condition code      1  
   fit RMS      .50262  
   data source      ORB  
   producer      Otto Matic  
   solution date      2015-Mar-09 23:42:42  

Additional Information
 Earth MOID = 4.69328 AU 
 T_jup = 2.387 
[ show covariance matrix ]

Ephemeris | Orbit Diagram | Orbital Elements | Physical Parameters | Discovery Circumstances ]

Physical Parameter Table
Parameter Symbol Value Units Sigma Reference Notes
absolute magnitude H 11.4 mag n/a MPO264814  

315898 (2008 QD4)          Discovered 2008-Aug-25 by La Sagra at La Sagra
Reference: 20120207/Numbers.arcLast Updated: 2012-02-09
Ephemeris | Orbit Diagram | Orbital Elements | Physical Parameters | Discovery Circumstances ]
ABOUT SSD CREDITS/AWARDS PRIVACY/COPYRIGHT GLOSSARY LINKS
FirstGov 2015-Apr-02 04:25 UT
(server date/time)  
NASA Home Page
Site Manager:   Ryan S. Park
Webmaster  Alan B. Chamberlin